Date String (YYYY-MM-DD hh:mm:ss) UTC,Instrument flags,Ambient pressure (hPa),Sample flow (lpm),Bypass flow (lpm),Sample temperature (°C),Ambient temperature (°C),ASC tube jacket temperature (°C),LED temperature (°C),Box temperature (°C),Sample RH (%),Span deviation,Mass concentration (μg/m³),Mass concentration (μg/m³),Mass concentration (μg/m³)
DateTimeUTC,F1_M11,P_M11,Q1_M11,Q2_M11,T1_M11,T2_M11,T3_M11,T4_M11,T5_M11,U1_M11,ZSPAN_M11,X0_M11,X2_M11,X1_M11
2022-07-29 19:00:00,,0830.5,5.00,0.00,31.2,28.3,00.0,39.5,32.0,34.3,-000.4,0015.03,0008.65,0008.17
2022-07-29 19:01:00,,0830.5,5.00,0.00,31.2,28.4,00.0,39.5,32.1,34.5,-000.0,0014.99,0008.66,0008.18
2022-07-29 19:02:00,,0830.5,5.01,0.00,31.2,28.5,00.0,39.5,32.1,34.0,0000.3,0015.21,0008.69,0008.20
2022-07-29 19:03:00,,0830.5,4.99,0.00,31.2,28.1,00.0,39.5,32.0,33.7,0000.4,0015.46,0008.73,0008.23
2022-07-29 19:04:00,,0830.5,5.01,0.00,31.1,27.6,00.0,39.5,31.9,34.1,0000.6,0015.38,0008.72,0008.24
2022-07-29 19:05:00,,0830.5,4.99,0.00,31.0,27.4,00.0,39.4,31.8,34.2,0000.7,0015.86,0008.74,0008.25
2022-07-29 19:06:00,,0830.4,5.01,0.00,30.9,27.4,00.0,39.4,31.8,34.4,0000.5,0014.65,0008.71,0008.25
2022-07-29 19:07:00,,0830.4,5.00,0.00,30.8,27.6,00.0,39.4,31.7,34.5,0000.8,0013.99,0008.66,0008.23
2022-07-29 19:08:00,,0830.4,4.99,0.00,30.7,27.7,00.0,39.3,31.7,34.5,0001.0,0013.83,0008.59,0008.20
2022-07-29 19:09:00,,0830.4,4.99,0.00,30.7,27.9,00.0,39.3,31.8,34.8,0001.3,0014.69,0008.57,0008.17
2022-07-29 19:10:00,,0830.4,5.01,0.00,30.7,28.1,00.0,39.3,31.9,35.0,0001.2,0014.89,0008.49,0008.12
2022-07-29 19:11:00,,0830.5,5.00,0.00,30.8,28.2,00.0,39.3,32.0,34.9,0001.2,0014.94,0008.51,0008.11
2022-07-29 19:12:00,,0830.5,5.00,0.00,30.9,28.4,00.0,39.3,32.1,34.0,0000.7,0014.93,0008.55,0008.13
2022-07-29 19:13:00,,0830.4,5.00,0.00,31.0,28.4,00.0,39.3,32.1,33.7,0000.2,0014.97,0008.58,0008.16
2022-07-29 19:14:00,,0830.5,5.01,0.00,31.0,27.8,00.0,39.3,31.9,33.6,0000.1,0014.37,0008.58,0008.17
2022-07-29 19:15:00,,0830.4,4.99,0.00,30.9,27.3,00.0,39.2,31.8,34.5,-000.2,0014.08,0008.58,0008.16
2022-07-29 19:16:00,,0830.4,5.01,0.00,30.9,27.2,00.0,39.2,31.7,34.7,-000.1,0013.07,0008.57,0008.15
2022-07-29 19:17:00,,0830.4,4.98,0.00,30.8,27.3,00.0,39.2,31.7,34.9,-000.1,0013.00,0008.59,0008.14
2022-07-29 19:18:00,,0830.4,5.01,0.00,30.8,27.5,00.0,39.2,31.7,35.2,-000.4,0013.31,0008.60,0008.14
2022-07-29 19:19:00,,0830.4,4.99,0.00,31.0,27.6,00.0,39.2,31.9,34.9,-000.7,0013.25,0008.62,0008.14
2022-07-29 19:20:00,,0830.4,5.00,0.00,31.1,27.8,00.0,39.2,32.0,34.5,-001.0,0012.46,0008.62,0008.15
2022-07-29 19:21:00,,0830.4,5.00,0.00,31.1,28.0,00.0,39.2,32.0,34.5,-001.2,0012.20,0008.65,0008.19
2022-07-29 19:22:00,,0830.4,5.00,0.00,31.2,28.2,00.0,39.2,32.0,34.5,-001.2,0012.37,0008.63,0008.18
2022-07-29 19:23:00,,0830.4,5.00,0.00,31.2,28.4,00.0,39.3,32.0,34.2,-000.7,0012.28,0008.61,0008.17
2022-07-29 19:24:00,,0830.4,4.99,0.00,31.2,28.5,00.0,39.3,32.0,34.1,-000.7,0012.24,0008.62,0008.18
2022-07-29 19:25:00,,0830.4,5.00,0.00,31.2,28.3,00.0,39.3,32.0,34.2,-000.8,0012.21,0008.66,0008.22
2022-07-29 19:26:00,,0830.5,4.99,0.00,31.1,27.7,00.0,39.3,31.8,34.5,-001.0,0012.17,0008.72,0008.26
2022-07-29 19:27:00,,0830.5,5.01,0.00,31.0,27.3,00.0,39.3,31.8,34.6,-001.1,0012.42,0008.76,0008.28
2022-07-29 19:28:00,,0830.5,4.99,0.00,30.9,27.3,00.0,39.3,31.7,34.8,-001.1,0012.27,0008.74,0008.29
2022-07-29 19:29:00,,0830.4,5.01,0.00,30.8,27.4,00.0,39.3,31.7,35.1,-000.8,0011.96,0008.74,0008.28
2022-07-29 19:30:00,,0830.5,5.00,0.00,31.0,27.5,00.0,39.2,31.8,35.0,-000.6,0012.48,0008.69,0008.26
2022-07-29 19:31:00,,0830.3,5.00,0.00,31.2,27.7,00.0,39.2,32.0,35.1,-000.5,0013.02,0008.64,0008.21
2022-07-29 19:32:00,,0830.5,4.99,0.00,31.4,27.9,00.0,39.2,32.1,33.9,-000.5,0013.10,0008.56,0008.13
2022-07-29 19:33:00,,0830.4,5.00,0.00,31.6,28.1,00.0,39.3,32.1,33.4,-000.5,0013.07,0008.49,0008.07
2022-07-29 19:34:00,,0830.4,5.00,0.00,31.6,28.3,00.0,39.3,32.1,33.5,-000.4,0013.13,0008.44,0008.00
2022-07-29 19:35:00,,0830.4,5.00,0.00,31.6,28.4,00.0,39.4,32.1,33.3,-000.1,0013.03,0008.38,0007.91
2022-07-29 19:36:00,,0830.4,5.00,0.00,31.6,28.6,00.0,39.5,32.2,33.1,0000.4,0012.96,0008.30,0007.84
2022-07-29 19:37:00,,0830.4,5.00,0.00,31.6,28.5,00.0,39.5,32.2,33.3,0001.0,0013.04,0008.19,0007.76
2022-07-29 19:38:00,,0830.5,5.01,0.00,31.6,27.9,00.0,39.5,32.0,33.4,0000.9,0013.39,0008.10,0007.70
2022-07-29 19:39:00,,0830.4,4.99,0.00,31.5,27.4,00.0,39.5,31.9,33.7,0000.8,0013.30,0008.04,0007.64
2022-07-29 19:40:00,,0830.4,5.01,0.00,31.4,27.3,00.0,39.5,31.8,34.2,0000.1,0013.27,0008.01,0007.61
2022-07-29 19:41:00,,0830.4,4.99,0.00,31.3,27.4,00.0,39.5,31.8,34.1,0000.4,0012.92,0008.04,0007.62
2022-07-29 19:42:00,,0830.4,5.01,0.00,31.2,27.6,00.0,39.5,31.8,34.0,0001.8,0012.27,0008.14,0007.67
2022-07-29 19:43:00,,0830.5,4.99,0.00,31.1,27.8,00.0,39.5,31.9,34.3,0002.0,0012.14,0008.23,0007.74
2022-07-29 19:44:00,,0830.3,5.01,0.00,31.1,27.9,00.0,39.5,31.9,35.1,0002.5,0011.99,0008.26,0007.77
2022-07-29 19:45:00,,0830.4,5.01,0.00,31.2,28.1,00.0,39.5,32.0,35.2,0002.1,0012.02,0008.27,0007.77
2022-07-29 19:46:00,,0830.4,4.98,0.00,31.4,28.3,00.0,39.5,32.2,34.0,0002.1,0012.63,0008.25,0007.77
2022-07-29 19:47:00,,0830.4,5.01,0.00,31.5,28.4,00.0,39.5,32.3,33.6,0002.1,0012.74,0008.28,0007.78
2022-07-29 19:48:00,,0830.4,5.00,0.00,31.6,28.6,00.0,39.5,32.3,33.9,0002.0,0012.51,0008.30,0007.78
2022-07-29 19:49:00,,0830.4,5.00,0.00,31.6,28.4,00.0,39.5,32.2,33.7,0002.1,0011.78,0008.28,0007.78
2022-07-29 19:50:00,,0830.4,4.99,0.00,31.6,27.8,00.0,39.5,32.0,33.5,0002.5,0011.72,0008.30,0007.79
2022-07-29 19:51:00,,0830.5,5.01,0.00,31.5,27.4,00.0,39.5,31.9,33.6,0003.0,0011.67,0008.29,0007.80
2022-07-29 19:52:00,,0830.5,5.00,0.00,31.4,27.3,00.0,39.5,31.9,34.0,0002.6,0011.59,0008.25,0007.79
2022-07-29 19:53:00,,0830.5,5.01,0.00,31.3,27.4,00.0,39.5,31.8,34.6,0002.4,0011.44,0008.17,0007.75
2022-07-29 19:54:00,,0830.5,4.99,0.00,31.2,27.6,00.0,39.5,31.9,34.0,0002.1,0011.46,0008.16,0007.75
2022-07-29 19:55:00,,0830.6,5.00,0.00,31.2,27.8,00.0,39.5,31.9,34.5,0002.2,0011.60,0008.19,0007.75
2022-07-29 19:56:00,,0830.6,5.01,0.00,31.1,28.0,00.0,39.5,31.9,33.8,0002.0,0011.63,0008.20,0007.76
2022-07-29 19:57:00,,0830.6,5.00,0.00,31.1,28.1,00.0,39.5,32.0,33.4,0002.3,0011.44,0008.24,0007.79
2022-07-29 19:58:00,,0830.6,5.00,0.00,31.0,28.3,00.0,39.5,32.0,33.4,0001.8,0010.92,0008.24,0007.80
2022-07-29 19:59:00,,0830.6,5.00,0.00,31.0,28.5,00.0,39.5,32.0,33.6,0000.8,0011.76,0008.29,0007.84
